GW6759 Weather Reports


time (UTC)temp
C
wind
direction
speed
KPH
gust
KPH
rain 1hr
cm
rain 24hr
cm
rain mn
cm
humidity
%
barometer
mb
20260505152156 27 107 0.0 0.0 0.00 0.00 0.00 47 1017.9
20260505151651 26 142 1.6 1.6 0.00 0.00 0.00 46 1018.1
20260505151149 27 61 0.0 1.6 0.00 0.00 0.00 45 1018.1
20260505150645 26 87 0.0 0.0 0.00 0.00 0.00 47 1018.1
20260505150142 26 137 0.0 1.6 0.00 0.00 0.00 47 1018.2
20260505140610 24 131 0.0 0.0 0.00 0.00 0.00 52 1018.0
20260505140107 24 71 0.0 1.6 0.00 0.00 0.00 51 1018.0
20260505125024 21 99 1.6 1.6 0.00 0.00 0.00 57 1017.9
20260505124520 21 105 0.0 0.0 0.00 0.00 0.00 60 1018.2
20260505124017 21 101 0.0 1.6 0.00 0.00 0.00 58 1018.2
20260505123513 20 97 0.0 0.0 0.00 0.00 0.00 60 1018.3
20260505123009 20 123 0.0 1.6 0.00 0.00 0.00 62 1018.1
20260505122507 19 75 1.6 1.6 0.00 0.00 0.00 61 1018.2
20260505122004 18 109 0.0 1.6 0.00 0.00 0.00 63 1018.0
20260505121500 18 127 0.0 1.6 0.00 0.00 0.00 66 1018.0
20260505120956 18 99 0.0 0.0 0.00 0.00 0.00 66 1018.1
20260505120453 17 96 0.0 1.6 0.00 0.00 0.00 67 1017.9
20260505115952 17 260 0.0 0.0 0.00 0.00 0.00 68 1017.9
20260505115448 17 90 1.6 1.6 0.00 0.00 0.00 67 1017.8
20260505114947 17 112 0.0 0.0 0.00 0.00 0.00 69 1017.9
20260505114442 16 74 0.0 0.0 0.00 0.00 0.00 70 1018.0
20260505113940 16 111 0.0 0.0 0.00 0.00 0.00 73 1017.9
20260505113436 15 102 0.0 0.0 0.00 0.00 0.00 74 1018.0
20260505112932 14 114 0.0 0.0 0.00 0.00 0.00 78 1017.7
20260505112429 13 97 0.0 0.0 0.00 0.00 0.00 80 1017.7
20260505111925 13 94 0.0 0.0 0.00 0.00 0.00 79 1017.6
20260505111420 13 93 0.0 0.0 0.00 0.00 0.00 81 1017.7
20260505110917 12 93 0.0 0.0 0.00 0.00 0.00 81 1017.5
20260505110414 12 93 0.0 0.0 0.00 0.00 0.00 82 1017.5
20260505101844 11 92 0.0 0.0 0.00 0.00 0.00 82 1017.1
20260505101339 12 141 0.0 0.0 0.00 0.00 0.00 81 1017.0
20260505100835 12 141 0.0 0.0 0.00 0.00 0.00 81 1017.0
20260505100332 11 109 0.0 0.0 0.00 0.00 0.00 82 1016.9
20260505095827 12 109 0.0 0.0 0.00 0.00 0.00 81 1016.9
20260505095326 11 106 0.0 0.0 0.00 0.00 0.00 82 1016.8
20260505094821 11 111 0.0 0.0 0.00 0.00 0.00 82 1016.7
20260505094318 11 91 0.0 0.0 0.00 0.00 0.00 82 1016.7
20260505093814 11 130 0.0 0.0 0.00 0.00 0.00 83 1016.8
20260505093312 11 130 0.0 0.0 0.00 0.00 0.00 83 1016.6
20260505092808 11 130 0.0 0.0 0.00 0.00 0.00 83 1016.7
20260505092307 12 130 0.0 0.0 0.00 0.00 0.00 82 1016.7
20260505091804 12 130 0.0 0.0 0.00 0.00 0.00 81 1016.7
20260505091302 12 130 0.0 0.0 0.00 0.00 0.00 80 1016.5
20260505090800 12 130 0.0 0.0 0.00 0.00 0.00 80 1016.6
20260505090258 12 130 0.0 0.0 0.00 0.00 0.00 80 1016.6
20260505085754 12 130 0.0 0.0 0.00 0.00 0.00 80 1016.5
20260505085253 12 130 0.0 0.0 0.00 0.00 0.00 80 1016.5
20260505084749 12 130 0.0 0.0 0.00 0.00 0.00 79 1016.7
20260505084249 12 131 0.0 0.0 0.00 0.00 0.00 78 1016.7
20260505083745 12 136 0.0 0.0 0.00 0.00 0.00 79 1016.6
20260505083242 12 136 0.0 0.0 0.00 0.00 0.00 78 1016.3
20260505082738 12 136 0.0 0.0 0.00 0.00 0.00 78 1016.4
20260505082235 12 136 0.0 0.0 0.00 0.00 0.00 77 1016.5
20260505081731 12 136 0.0 0.0 0.00 0.00 0.00 76 1016.3
20260505081229 13 136 0.0 0.0 0.00 0.00 0.00 76 1016.5
20260505080726 13 136 0.0 0.0 0.00 0.00 0.00 76 1016.2
20260505080221 13 136 0.0 0.0 0.00 0.00 0.00 74 1016.5
20260505075717 13 136 0.0 0.0 0.00 0.00 0.00 74 1016.4
20260505075214 13 136 0.0 0.0 0.00 0.00 0.00 73 1016.3
20260505074712 13 136 0.0 0.0 0.00 0.00 0.00 74 1016.3
20260505074208 13 136 0.0 0.0 0.00 0.00 0.00 74 1016.2
20260505073706 13 136 0.0 0.0 0.00 0.00 0.00 73 1016.1
20260505073204 14 136 0.0 0.0 0.00 0.00 0.00 72 1016.1
20260505072659 14 136 0.0 0.0 0.00 0.00 0.00 73 1016.1
20260505072156 14 136 0.0 0.0 0.00 0.00 0.00 72 1016.0
20260505071651 14 135 0.0 0.0 0.00 0.00 0.00 72 1016.1
20260505071149 14 84 0.0 0.0 0.00 0.00 0.00 71 1016.1
20260505070646 15 109 0.0 0.0 0.00 0.00 0.00 71 1016.2
20260505070143 15 98 0.0 0.0 0.00 0.00 0.00 70 1016.0
20260505065639 15 64 0.0 1.6 0.00 0.00 0.00 69 1015.9
20260505065135 15 63 0.0 0.0 0.00 0.00 0.00 69 1016.2
20260505064632 15 37 1.6 1.6 0.00 0.00 0.00 70 1016.1
20260505064131 15 17 0.0 0.0 0.00 0.00 0.00 70 1016.2
20260505063628 15 16 0.0 0.0 0.00 0.00 0.00 70 1016.1
20260505063124 15 52 0.0 0.0 0.00 0.00 0.00 69 1016.0
20260505062620 15 296 0.0 0.0 0.00 0.00 0.00 68 1016.2
20260505062118 15 15 0.0 0.0 0.00 0.00 0.00 69 1016.0
20260505061615 15 90 0.0 0.0 0.00 0.00 0.00 68 1015.9
20260505061113 15 267 0.0 0.0 0.00 0.00 0.00 68 1016.0
20260505060610 16 21 0.0 0.0 0.00 0.00 0.00 67 1016.0
20260505060107 16 68 0.0 0.0 0.00 0.00 0.00 66 1016.2
20260505055602 16 140 1.6 3.2 0.00 0.00 0.00 66 1016.0
20260505055059 16 343 1.6 3.2 0.00 0.00 0.00 67 1016.1
20260505054556 16 305 0.0 0.0 0.00 0.00 0.00 66 1016.0
20260505054054 16 45 1.6 1.6 0.00 0.00 0.00 67 1016.0
20260505053551 16 190 0.0 0.0 0.00 0.00 0.00 66 1016.2
20260505053048 16 163 0.0 1.6 0.00 0.00 0.00 66 1016.2
20260505052544 16 156 0.0 0.0 0.00 0.00 0.00 65 1016.3
20260505052042 16 304 1.6 1.6 0.00 0.00 0.00 66 1016.2
20260505051539 16 4 6.4 6.4 0.00 0.00 0.00 66 1016.1
20260505051037 16 28 0.0 0.0 0.00 0.00 0.00 65 1016.2
20260505050535 16 70 0.0 1.6 0.00 0.00 0.00 65 1016.2
20260505041502 17 31 1.6 3.2 0.00 0.00 0.00 64 1016.2
20260505041000 17 130 0.0 0.0 0.00 0.00 0.00 63 1016.2
20260505040457 17 125 0.0 0.0 0.00 0.00 0.00 63 1016.4
20260505035954 17 37 0.0 1.6 0.00 0.00 0.00 63 1016.2
20260505035450 17 115 0.0 0.0 0.00 0.00 0.00 62 1016.2
20260505034947 17 142 0.0 0.0 0.00 0.00 0.00 62 1016.3
20260505034443 17 136 1.6 1.6 0.00 0.00 0.00 62 1016.2
20260505033941 17 44 0.0 0.0 0.00 0.00 0.00 62 1016.1
20260505033437 17 154 0.0 1.6 0.00 0.00 0.00 62 1016.0
20260505032936 17 55 0.0 0.0 0.00 0.00 0.00 62 1016.3
20260505032432 18 36 1.6 1.6 0.00 0.00 0.00 62 1016.1
20260505031929 18 55 0.0 0.0 0.00 0.00 0.00 61 1016.0
20260505031426 18 341 1.6 1.6 0.00 0.00 0.00 61 1016.1
20260505030923 18 39 0.0 0.0 0.00 0.00 0.00 61 1016.0
20260505030419 18 98 0.0 0.0 0.00 0.00 0.00 60 1016.1
20260505025914 18 83 1.6 1.6 0.00 0.00 0.00 61 1016.2
20260505025412 18 28 1.6 3.2 0.00 0.00 0.00 60 1016.1
20260505024911 18 139 0.0 0.0 0.00 0.00 0.00 59 1016.2
20260505024408 18 39 3.2 3.2 0.00 0.00 0.00 60 1016.1
20260505023904 18 181 1.6 3.2 0.00 0.00 0.00 59 1016.3
20260505023402 19 199 1.6 1.6 0.00 0.00 0.00 58 1016.0
20260505022859 19 100 0.0 1.6 0.00 0.00 0.00 58 1016.1
20260505022356 19 34 0.0 1.6 0.00 0.00 0.00 58 1016.1
20260505021853 19 23 1.6 3.2 0.00 0.00 0.00 57 1015.8
20260505021349 19 62 0.0 0.0 0.00 0.00 0.00 55 1015.9
20260505020845 20 208 1.6 1.6 0.00 0.00 0.00 54 1015.9
20260505020341 20 316 0.0 0.0 0.00 0.00 0.00 52 1016.0
20260505015838 20 79 0.0 1.6 0.00 0.00 0.00 51 1015.8
20260505015335 20 169 1.6 1.6 0.00 0.00 0.00 48 1015.6
20260505014833 20 2 1.6 3.2 0.00 0.00 0.00 45 1015.8
20260505014329 20 163 0.0 1.6 0.00 0.00 0.00 44 1015.4
20260505013826 20 97 0.0 0.0 0.00 0.00 0.00 45 1015.5
20260505013323 20 336 0.0 1.6 0.00 0.00 0.00 46 1015.3
20260505012822 20 41 0.0 1.6 0.00 0.00 0.00 45 1015.4
20260505012319 20 80 0.0 0.0 0.00 0.00 0.00 44 1015.3
20260505011814 20 155 0.0 0.0 0.00 0.00 0.00 44 1015.2
20260505011312 20 337 1.6 1.6 0.00 0.00 0.00 46 1015.2
20260505010808 20 103 0.0 1.6 0.00 0.00 0.00 45 1014.9
20260505010304 20 63 0.0 0.0 0.00 0.00 0.00 45 1015.1
20260505005800 20 173 0.0 1.6 0.00 0.00 0.00 43 1014.9
20260505005257 20 75 0.0 0.0 0.00 0.00 0.00 43 1014.8
20260505004755 21 284 0.0 1.6 0.00 0.00 0.00 43 1014.6
20260505004250 21 318 0.0 0.0 0.00 0.00 0.00 42 1014.7
20260505003748 21 41 1.6 1.6 0.00 0.00 0.00 42 1014.6
20260505003246 21 351 1.6 1.6 0.00 0.00 0.00 42 1014.7
20260505002742 21 64 0.0 0.0 0.00 0.00 0.00 42 1014.6
20260505002239 21 65 0.0 0.0 0.00 0.00 0.00 42 1014.5
20260505001737 21 32 0.0 0.0 0.00 0.00 0.00 41 1014.5
20260505001234 21 6 1.6 1.6 0.00 0.00 0.00 41 1014.6
20260505000731 21 119 0.0 0.0 0.00 0.00 0.00 39 1014.5
20260505000229 22 152 0.0 0.0 0.00 0.00 0.00 39 1014.7
20260504235725 22 104 0.0 0.0 0.00 0.00 0.00 38 1014.3
20260504235221 22 247 0.0 0.0 0.00 0.00 0.00 40 1014.4
20260504234719 22 66 0.0 1.6 0.00 0.00 0.00 39 1014.4
20260504234216 22 159 0.0 0.0 0.00 0.00 0.00 38 1014.4
20260504233712 23 249 0.0 1.6 0.00 0.00 0.00 38 1014.3
20260504233208 23 47 0.0 1.6 0.00 0.00 0.00 37 1014.0
20260504232705 23 29 0.0 0.0 0.00 0.00 0.00 37 1014.0
20260504232202 23 133 0.0 0.0 0.00 0.00 0.00 36 1014.1
20260504231659 23 91 0.0 1.6 0.00 0.00 0.00 36 1014.0
20260504231155 23 130 0.0 0.0 0.00 0.00 0.00 36 1014.0
20260504230651 23 303 0.0 0.0 0.00 0.00 0.00 35 1014.0
20260504230150 23 287 0.0 1.6 0.00 0.00 0.00 36 1014.0
20260504225648 24 7 1.6 1.6 0.00 0.00 0.00 36 1013.9
20260504225144 24 131 0.0 0.0 0.00 0.00 0.00 36 1014.0
20260504224641 24 179 0.0 1.6 0.00 0.00 0.00 34 1013.9
20260504224138 24 38 0.0 0.0 0.00 0.00 0.00 35 1014.0
20260504223635 25 33 0.0 1.6 0.00 0.00 0.00 35 1014.0
20260504223131 25 140 0.0 0.0 0.00 0.00 0.00 34 1014.1
20260504222628 25 32 0.0 1.6 0.00 0.00 0.00 35 1014.1
20260504222125 25 9 1.6 1.6 0.00 0.00 0.00 33 1014.0
20260504221622 25 286 1.6 3.2 0.00 0.00 0.00 32 1013.9
20260504221119 25 42 3.2 3.2 0.00 0.00 0.00 32 1014.1
20260504220615 25 37 1.6 3.2 0.00 0.00 0.00 32 1014.2
20260504220113 25 255 0.0 0.0 0.00 0.00 0.00 32 1014.0
20260504215609 25 286 1.6 1.6 0.00 0.00 0.00 32 1014.0
20260504215107 25 160 0.0 1.6 0.00 0.00 0.00 34 1014.2
20260504214603 25 334 0.0 0.0 0.00 0.00 0.00 34 1014.1
20260504214059 25 69 0.0 1.6 0.00 0.00 0.00 33 1013.9
20260504213555 25 310 0.0 0.0 0.00 0.00 0.00 32 1014.0
20260504213053 25 300 1.6 1.6 0.00 0.00 0.00 34 1014.1
20260504212548 25 357 1.6 3.2 0.00 0.00 0.00 32 1014.3
20260504212046 25 353 0.0 0.0 0.00 0.00 0.00 33 1014.1
20260504211543 25 15 1.6 3.2 0.00 0.00 0.00 33 1014.1
20260504211040 25 10 0.0 1.6 0.00 0.00 0.00 33 1014.1
20260504210537 26 187 0.0 1.6 0.00 0.00 0.00 34 1014.2
20260504210033 25 291 0.0 0.0 0.00 0.00 0.00 34 1014.0
20260504205531 26 6 1.6 3.2 0.00 0.00 0.00 32 1014.0
20260504205029 26 74 1.6 3.2 0.00 0.00 0.00 31 1014.2
20260504204527 26 357 0.0 0.0 0.00 0.00 0.00 32 1014.2
20260504204026 26 339 0.0 1.6 0.00 0.00 0.00 33 1014.4
20260504203523 26 137 0.0 1.6 0.00 0.00 0.00 34 1014.5
20260504203021 25 124 0.0 0.0 0.00 0.00 0.00 33 1014.2
20260504202516 25 38 0.0 0.0 0.00 0.00 0.00 34 1014.4
20260504202013 26 172 3.2 3.2 0.00 0.00 0.00 35 1014.4
20260504201510 26 22 0.0 1.6 0.00 0.00 0.00 33 1014.6
20260504201008 25 237 1.6 3.2 0.00 0.00 0.00 33 1014.7
20260504200504 25 274 0.0 0.0 0.00 0.00 0.00 33 1014.5
20260504200000 26 291 0.0 0.0 0.00 0.00 0.00 32 1014.7
20260504195456 26 172 0.0 0.0 0.00 0.00 0.00 35 1014.6
20260504194953 26 276 0.0 1.6 0.00 0.00 0.00 32 1014.6
20260504194449 25 86 0.0 0.0 0.00 0.00 0.00 33 1014.9
20260504193945 25 81 1.6 1.6 0.00 0.00 0.00 34 1014.8
20260504193443 25 186 1.6 1.6 0.00 0.00 0.00 33 1014.9
20260504192942 25 57 0.0 1.6 0.00 0.00 0.00 33 1014.9
20260504192438 25 255 0.0 0.0 0.00 0.00 0.00 34 1015.0
20260504191937 25 22 4.8 4.8 0.00 0.00 0.00 33 1014.8
20260504191435 25 235 0.0 1.6 0.00 0.00 0.00 33 1015.1
20260504190930 25 36 0.0 1.6 0.00 0.00 0.00 34 1015.0
20260504190425 25 16 0.0 1.6 0.00 0.00 0.00 33 1015.1
20260504185923 25 61 0.0 1.6 0.00 0.00 0.00 35 1015.3
20260504185420 26 75 1.6 1.6 0.00 0.00 0.00 34 1015.5
20260504184915 25 350 1.6 1.6 0.00 0.00 0.00 35 1015.5
20260504184411 25 121 0.0 1.6 0.00 0.00 0.00 33 1015.6
20260504183908 25 256 0.0 1.6 0.00 0.00 0.00 34 1015.6
20260504183405 25 296 0.0 0.0 0.00 0.00 0.00 33 1015.9
20260504182903 25 22 1.6 1.6 0.00 0.00 0.00 34 1015.6
20260504182400 25 56 1.6 3.2 0.00 0.00 0.00 34 1015.5
20260504181856 25 335 3.2 3.2 0.00 0.00 0.00 34 1015.6
20260504181354 25 303 0.0 1.6 0.00 0.00 0.00 33 1015.9
20260504180853 25 41 1.6 1.6 0.00 0.00 0.00 37 1016.0
20260504180350 25 145 0.0 0.0 0.00 0.00 0.00 34 1015.9
20260504175848 25 282 1.6 3.2 0.00 0.00 0.00 36 1015.8
20260504175345 25 145 0.0 0.0 0.00 0.00 0.00 36 1016.1
20260504174843 25 272 0.0 0.0 0.00 0.00 0.00 35 1016.0
20260504174340 25 12 3.2 3.2 0.00 0.00 0.00 36 1016.3
20260504173837 26 5 3.2 3.2 0.00 0.00 0.00 37 1016.3
20260504173334 25 196 1.6 1.6 0.00 0.00 0.00 34 1016.2
20260504172831 25 305 3.2 4.8 0.00 0.00 0.00 35 1016.3
20260504172328 25 196 0.0 1.6 0.00 0.00 0.00 35 1016.2
20260504171823 26 230 0.0 1.6 0.00 0.00 0.00 36 1016.7
20260504171321 26 245 0.0 0.0 0.00 0.00 0.00 37 1016.7
20260504170818 26 209 0.0 1.6 0.00 0.00 0.00 35 1016.7
20260504170315 26 201 1.6 1.6 0.00 0.00 0.00 37 1016.9
20260504160233 26 108 0.0 0.0 0.00 0.00 0.00 39 1017.5